Simultaneous Nadir Overpasses (SNOs) Predictions

Prediction of SNOs between AQUA and METOP-C Satellite Orbit:

Table of predicted SNOs for the next 14.0 days since TLE Epoch: 4/27/2024
Index Date (AQUA) Time (AQUA) Lat,Lon (AQUA) SZA (AQUA ) Date (METOP-C) Time (METOP-C) Lat,Lon (METOP-C) SZA (METOP-C ) Distance(km) Time Diff (sec)
1 04/28/2024 04:27:05 75.27, 111.35 60.89 04/28/2024 04:26:37 75.28, 111.27 60.90 2.49 28
2 04/28/2024 05:16:28 -75.34, -81.19 119.05 04/28/2024 05:17:17 -75.33, -81.25 119.07 2.45 49
3 04/30/2024 19:48:41 -75.27, 60.99 119.93 04/30/2024 19:47:36 -75.27, 61.00 119.92 0.49 65
4 04/30/2024 20:38:05 75.32,-131.49 60.12 04/30/2024 20:38:15 75.34,-131.44 60.14 3.22 10
5 04/30/2024 21:27:39 -75.93, 34.37 119.27 04/30/2024 21:28:44 -75.90, 37.67 119.31 89.48 65
6 05/03/2024 11:59:39 -75.31, 178.19 120.68 05/03/2024 11:59:15 -75.31, 178.23 120.67 1.32 24
7 05/03/2024 12:49:03 75.36, -14.30 59.37 05/03/2024 12:49:55 75.34, -14.36 59.35 2.67 52
8 05/06/2024 03:21:11 75.27, 127.96 58.53 05/06/2024 03:20:14 75.29, 127.92 58.55 2.28 57
9 05/06/2024 04:10:34 -75.34, -64.59 121.41 05/06/2024 04:10:54 -75.34, -64.60 121.41 0.81 20
10 05/08/2024 18:42:30 -74.79, 78.92 122.67 05/08/2024 18:41:24 -74.74, 76.11 122.71 82.35 66
11 05/08/2024 19:32:04 75.35,-114.93 57.88 05/08/2024 19:31:52 75.34,-114.84 57.87 2.89 12



Historial Predications of SNOs between AQUA and METOP-C
